Location: *
(8.1470°N, 4.7200°E)
Time: 18:24:05
(UTC+00:00)

Daily predictions for brighter satellites

Satellite Brightness Start Highest point End
(mag) Time Altitude Azimuth Time Altitude Azimuth Time Altitude Azimuth
ARIANE 44LP R/B 4.3 17:51:29 10° W 17:55:43 80° S 18:24:51 10° E
Cosmos 1092 Rocket 4.2 18:05:41 10° N 18:11:49 78° W 18:18:01 10° S
USA 81 4.0 18:11:39 10° N 18:16:54 70° E 18:22:08 10° S
Palapa 6 Rocket 4.4 18:14:05 10° NW 18:17:11 22° NNE 18:20:08 10° ENE
Cosmos 1943 Rocket 3.5 18:13:44 10° NNE 18:17:38 19° ENE 18:21:33 10° ESE
Cosmos 540 Rocket 3.5 18:13:36 10° N 18:18:42 66° ENE 18:23:49 10° SSE
BREEZE M DEB (TANK) 2.4 18:17:17 10° NNW 18:19:41 28° NE 18:21:41 10° ESE
Cosmos 1812 4.5 18:20:15 10° NE 18:22:15 14° E 18:24:16 10° ESE
USA 238 DEB 4.0 18:16:16 10° NNW 18:23:31 60° ENE 18:30:50 10° SE
ATLAS 5 CENTAUR R/B 3.7 18:17:03 10° NW 18:23:32 48° WSW 18:30:19 10° S
USA 238 4.0 18:16:23 10° NNW 18:23:37 59° ENE 18:30:54 10° SE
Cosmos 1707 Rocket 3.8 18:20:01 10° N 18:24:23 77° W 18:28:44 10° S
FengYun 1-2 T 4.2 18:22:24 10° SSE 18:27:52 80° ENE 18:33:22 10° N
Envisat 3.2 18:25:08 10° S 18:30:12 75° WSW 18:35:15 10° NNW
ATLAS 3B R/B 3.8 18:31:59 10° NNE 18:37:21 24° ENE 18:41:22 15° ESE
CZ-2C R/B 3.6 18:34:15 10° NNE 18:38:49 70° ESE 18:43:18 10° S
Meteor 1-25 Rocket 4.3 18:40:33 10° S 18:46:00 53° E 18:51:30 10° NNE
YAOGAN 6 3.3 18:42:56 10° S 18:46:20 53° W 18:49:44 10° NNW
SEDSat Delta rocket 4.4 18:43:31 10° SSW 18:47:18 24° SE 18:49:00 20° ESE
Cosmos 1777 Rocket 4.2 18:45:33 10° SSW 18:50:45 75° WNW 18:55:59 10° N
Atlas Centaur 2 2.9 18:54:35 10° NNW 18:58:18 27° NNE 19:00:18 21° ENE
NOAA 11 4.2 18:53:02 10° SSE 18:58:21 57° ENE 19:03:42 10° N
CZ-2D R/B 3.1 18:55:36 10° SSE 18:59:29 85° ENE 19:03:20 10° N
YAOGAN 1 4.1 18:58:24 10° SSW 19:02:21 36° W 19:06:19 10° NW
Cosmos 2266 Rocket 4.1 18:56:45 10° NNE 19:02:31 48° E 19:07:46 13° SSE
Centaur D-1AR AC-48 4.0 18:43:23 10° WNW 19:02:39 36° N 19:06:50 14° NE
GPS 2-04 Rocket1 3.9 18:59:14 10° NNW 19:02:44 28° NE 19:03:40 25° ENE
ARIANE 5 R/B 3.3 19:01:41 10° SSW 19:03:16 18° SSE 19:03:16 18° SSE
Cosmos 2369 Rocket 2.2 18:59:31 10° N 19:05:01 57° ENE 19:08:20 24° SE
Cosmos 1703 Rocket 4.2 19:05:32 10° NNE 19:09:08 34° ENE 19:09:08 34° ENE
BREEZE-M DEB (TANK) 3.1 19:02:14 10° NW 19:10:54 66° SW 19:12:33 30° SSE
NOSS 3-2 (C) 4.2 19:02:52 10° NNW 19:11:14 74° ENE 19:17:50 19° SSE
IRS-1A Rocket 4.3 19:05:31 10° SSE 19:11:22 76° ENE 19:17:15 10° N
Ariane Rocket 3.0 19:07:05 10° S 19:12:09 80° WSW 19:17:11 10° NNW
ARIANE 5 R/B 3.1 19:01:55 10° WSW 19:13:14 29° SSW 19:14:49 24° SSE
Meteor 1-20 Rocket 4.4 19:07:26 10° S 19:13:17 77° W 19:19:05 10° N
Cosmos 1655 Rocket 4.3 19:08:40 10° N 19:14:53 70° W 19:21:11 10° S
HJ-1C 3.3 19:16:01 62° S 19:16:30 83° W 19:19:48 10° NNW
Cosmos 1869 Rocket 4.2 19:15:28 10° SSW 19:19:41 54° W 19:23:53 10° N
ARIANE 5 DEB (SYLDA) 3.4 19:12:50 10° W 19:21:35 76° S 19:22:34 52° ESE
Cosmos 1939 Rocket 3.6 19:18:30 12° S 19:22:14 54° W 19:26:14 10° NNW
MOS 1 4.2 19:19:52 27° SSE 19:23:01 70° ENE 19:28:40 10° N
COSMOS 2406 3.1 19:18:45 10° S 19:24:19 63° ESE 19:29:54 10° NNE
Cosmos 1553 Rocket 4.1 19:25:25 44° ESE 19:26:02 46° E 19:31:55 10° NNE
GPS 2-12 Rocket1 3.0 19:23:51 10° WSW 19:28:38 71° SSE 19:28:47 71° SE
GPS 2-15 Rocket1 3.2 19:27:05 10° WNW 19:32:01 71° SSW 19:32:23 67° SSE
Cosmos 1417 Rocket 4.4 19:37:05 58° ESE 19:37:33 60° E 19:43:34 10° NNE
ADEOS Rocket 3.2 19:31:22 10° NNE 19:37:58 80° ESE 19:45:18 10° S
Ariane H10 4.3 19:14:05 10° W 19:39:22 62° S 19:40:38 51° SE
Maqsat-H 4.0 19:38:35 10° SW 19:44:10 44° SSE 19:46:47 39° SE
CENTAUR R/B 3.2 19:42:39 10° NNW 19:51:22 88° WSW 19:54:25 46° SSE
SPOT 3 Rocket 4.0 19:55:27 54° NNW 19:55:27 54° NNW 19:59:24 10° NNW
Skynet4D Del rocket 4.4 19:49:11 10° SW 19:57:05 61° SSE 19:57:05 61° SSE
Cosmos 1943 Rocket 3.8 19:56:21 10° NW 20:01:08 30° WSW 20:04:06 19° SSW
ATLAS 3B R/B 3.8 20:21:31 10° NW 20:27:49 38° WSW 20:28:41 37° SW
